This is the latest recevied weather packets stored in our database for station/object DL3TR-13. If no packets are shown the sender has not sent any weather packets the latest 10 day(s).
| Time | Temp. | Humidity | Pressure | Rain* | Wind** | Luminosity | Snow |
|---|---|---|---|---|---|---|---|
| 1777460592 | 16.67° C | 45% | 1016.9 hPa | 0 mm | - | 800 W/m² | - |
| 1777459992 | 16.67° C | 46% | 1016.9 hPa | 0 mm | - | 793 W/m² | - |
| 1777459392 | 16.67° C | 46% | 1016.9 hPa | 0 mm | - | 777 W/m² | - |
| 1777458792 | 16.67° C | 48% | 1016.9 hPa | 0 mm | - | 793 W/m² | - |
| 1777458192 | 16.11° C | 48% | 1016.9 hPa | 0 mm | - | 779 W/m² | - |
| 1777457592 | 16.11° C | 48% | 1016.9 hPa | 0 mm | - | 772 W/m² | - |
| 1777456992 | 16.11° C | 49% | 1016.9 hPa | 0 mm | - | 770 W/m² | - |
| 1777456392 | 15.56° C | 51% | 1016.9 hPa | 0 mm | - | 756 W/m² | - |
| 1777455792 | 14.44° C | 53% | 1016.8 hPa | 0 mm | - | 740 W/m² | - |
| 1777455192 | 14.44° C | 54% | 1016.9 hPa | 0 mm | - | 670 W/m² | - |
| 1777454592 | 14.44° C | 56% | 1016.9 hPa | 0 mm | - | 729 W/m² | - |
| 1777453992 | 13.33° C | 57% | 1016.9 hPa | 0 mm | - | 605 W/m² | - |
| 1777453392 | 12.78° C | 59% | 1016.8 hPa | 0 mm | - | 615 W/m² | - |
| 1777452792 | 12.78° C | 59% | 1016.9 hPa | 0 mm | - | 320 W/m² | - |
| 1777452192 | 12.22° C | 58% | 1016.9 hPa | 0 mm | - | 318 W/m² | - |
| 1777451592 | 12.22° C | 59% | 1016.8 hPa | 0 mm | - | 306 W/m² | - |
| 1777450992 | 11.67° C | 61% | 1016.8 hPa | 0 mm | - | 216 W/m² | - |
| 1777450392 | 11.67° C | 59% | 1016.8 hPa | 0 mm | - | 186 W/m² | - |
| 1777449792 | 11.67° C | 61% | 1016.8 hPa | 0 mm | - | 200 W/m² | - |
| 1777449192 | 11.67° C | 61% | 1016.7 hPa | 0 mm | - | 172 W/m² | - |
| 1777448592 | 11.67° C | 60% | 1016.6 hPa | 0 mm | - | 176 W/m² | - |
| 1777447992 | 11.67° C | 61% | 1016.6 hPa | 0 mm | - | 197 W/m² | - |
| 1777447392 | 11.67° C | 60% | 1016.7 hPa | 0 mm | - | 186 W/m² | - |
| 1777446792 | 11.11° C | 61% | 1016.5 hPa | 0 mm | - | 155 W/m² | - |
| 1777446192 | 11.11° C | 63% | 1016.5 hPa | 0 mm | - | 146 W/m² | - |
* Rain latest hour (hover to see other rain measurements)
** Current wind speed in m/s (hover to see current wind gust speed)